Location: Mahannah Oil Field
(37.4664°N, 96.6003°W)
Time: 20:58:00
(UTC+00:00)

deb Explorer IX - All Passes

Search period start: 21 January 2021 00:00
Search period end: 31 January 2021 00:00
Orbit: 536 x 1104 km, 38.8° (Epoch: 21 January)

Date Brightness Start Highest point End Pass type
(mag) Time Alt. Az. Time Alt. Az. Time Alt. Az.
21 Jan - 00:41:38 10° SW 00:47:30 43° SSE 00:52:32 10° E visible
21 Jan - 02:28:38 10° WSW 02:34:22 88° NNW 02:39:12 10° E visible
21 Jan - 04:16:16 10° W 04:21:22 79° N 04:25:46 10° E night (unlit)
21 Jan - 06:03:38 10° W 06:08:01 47° SSW 06:11:59 10° SE night (unlit)
21 Jan - 07:53:22 10° SW 07:53:57 10° SW 07:54:32 10° SSW night (unlit)
21 Jan - 22:33:57 10° S 22:37:14 14° SE 22:40:20 10° ESE daylight
22 Jan - 00:17:45 10° SW 00:23:49 44° SSE 00:29:02 10° E visible
22 Jan - 02:04:47 10° WSW 02:10:44 88° NNW 02:15:43 10° E visible
22 Jan - 03:52:29 10° W 03:57:47 79° N 04:02:18 10° E visible
22 Jan - 05:39:55 10° W 05:44:28 48° SSW 05:48:30 10° SE night (unlit)
22 Jan - 07:29:35 10° SW 07:30:22 10° SW 07:31:10 10° SSW night (unlit)
22 Jan - 22:09:58 10° S 22:13:30 15° SE 22:16:51 10° ESE daylight
22 Jan - 23:53:52 10° SW 00:00:06 45° SSE 00:05:30 10° E daylight
23 Jan - 01:40:56 10° WSW 01:47:04 88° N 01:52:13 10° E visible
23 Jan - 03:28:41 10° W 03:34:11 80° N 03:38:49 10° E visible
23 Jan - 05:16:11 10° W 05:20:54 48° SSW 05:25:01 10° SE night (unlit)
23 Jan - 07:05:45 10° SW 07:06:48 11° SW 07:07:49 10° SSW night (unlit)
23 Jan - 21:45:59 10° S 21:49:45 15° SE 21:53:20 10° ESE daylight
23 Jan - 23:29:57 10° SW 23:36:23 46° SSE 23:41:57 10° E daylight
24 Jan - 01:17:03 10° WSW 01:23:23 88° NNW 01:28:43 10° E visible
24 Jan - 03:04:51 10° W 03:10:33 80° N 03:15:20 10° E visible
24 Jan - 04:52:25 10° W 04:57:18 49° SSW 05:01:32 10° SE night (unlit)
24 Jan - 06:41:54 10° WSW 06:43:12 11° SW 06:44:28 10° SSW night (unlit)
24 Jan - 21:22:01 10° S 21:25:59 16° SE 21:29:46 10° ESE daylight
24 Jan - 23:06:03 10° SW 23:12:37 47° SSE 23:18:23 10° E daylight
25 Jan - 00:53:10 10° WSW 00:59:41 88° NNW 01:05:11 10° E visible
25 Jan - 02:41:00 10° W 02:46:53 81° N 02:51:50 10° E visible
25 Jan - 04:28:37 10° W 04:33:42 50° SSW 04:38:03 10° SE night (unlit)
25 Jan - 06:18:01 10° WSW 06:19:36 12° SW 06:21:07 10° SSW night (unlit)
25 Jan - 20:58:04 10° S 21:02:12 16° SE 21:06:10 10° ESE daylight
25 Jan - 22:42:09 10° SW 22:48:51 48° SSE 22:54:47 10° E daylight
26 Jan - 00:29:16 10° WSW 00:35:57 88° NNW 00:41:38 10° E visible
26 Jan - 02:17:08 10° W 02:23:13 81° N 02:28:20 10° E visible
26 Jan - 04:04:48 10° W 04:10:04 51° SSW 04:14:33 10° SE visible
26 Jan - 05:54:08 10° WSW 05:55:58 12° SW 05:57:44 10° SSW night (unlit)
26 Jan - 20:34:08 10° S 20:38:25 17° SE 20:42:31 10° ESE daylight
26 Jan - 22:18:15 10° SW 22:25:03 49° SSE 22:31:10 10° E daylight
27 Jan - 00:05:22 10° WSW 00:12:12 88° N 00:18:04 10° E visible
27 Jan - 01:53:15 10° W 01:59:32 81° N 02:04:48 10° E visible
27 Jan - 03:40:57 10° W 03:46:26 52° SSW 03:51:02 10° SE visible
27 Jan - 05:30:14 10° WSW 05:32:21 13° SW 05:34:22 10° SSW night (unlit)
27 Jan - 20:10:14 10° S 20:14:36 17° SE 20:18:51 10° ESE daylight
27 Jan - 21:54:20 10° SW 22:01:14 49° SSE 22:07:31 10° E daylight
27 Jan - 23:41:27 10° WSW 23:48:26 88° N 23:54:29 10° E daylight
28 Jan - 01:29:20 10° W 01:35:49 82° N 01:41:16 10° E visible
28 Jan - 03:17:06 10° W 03:22:45 53° SSW 03:27:32 10° SE visible
28 Jan - 05:06:18 10° WSW 05:08:42 13° SW 05:10:58 10° SSW night (unlit)
28 Jan - 19:46:21 10° S 19:50:47 17° SE 19:55:08 10° ESE daylight
28 Jan - 21:30:27 10° SW 21:37:25 50° SSE 21:43:50 10° E daylight
28 Jan - 23:17:32 10° WSW 23:24:39 88° N 23:30:52 10° E daylight
29 Jan - 01:05:26 10° W 01:12:04 82° N 01:17:42 10° E visible
29 Jan - 02:53:12 10° W 02:59:03 54° SSW 03:04:01 10° SE visible
29 Jan - 04:42:22 10° WSW 04:45:03 14° SW 04:47:33 10° S night (unlit)
29 Jan - 19:22:28 10° S 19:26:57 17° SE 19:31:23 10° ESE daylight
29 Jan - 21:06:33 10° SW 21:13:34 50° SSE 21:20:08 10° E daylight
29 Jan - 22:53:37 10° WSW 23:00:49 88° NNW 23:07:13 10° E daylight
30 Jan - 00:41:30 10° W 00:48:19 82° N 00:54:08 10° E visible
30 Jan - 02:29:18 10° W 02:35:21 54° SSW 02:40:28 10° SE visible
30 Jan - 04:18:25 10° WSW 04:21:22 15° SW 04:24:07 10° S visible
30 Jan - 18:58:37 10° S 19:03:07 17° SE 19:07:35 10° E daylight
30 Jan - 20:42:41 10° SW 20:49:43 51° SSE 20:56:24 10° E daylight
30 Jan - 22:29:42 10° WSW 22:37:00 88° N 22:43:33 10° E daylight
